www.pogodaiklimat.ru

Архив погоды в Дубае (ОАЭ)

Время
(UTC), дата
19 25.01
20 25.01
21 25.01
22 25.01
23 25.01
00 26.01
01 26.01
02 26.01
03 26.01
04 26.01
05 26.01
06 26.01
07 26.01
08 26.01
09 26.01
10 26.01
11 26.01
12 26.01
13 26.01
14 26.01
15 26.01
16 26.01
17 26.01
18 26.01
19 26.01
20 26.01
21 26.01
22 26.01
23 26.01
00 27.01
01 27.01
02 27.01
03 27.01
04 27.01
05 27.01
06 27.01
07 27.01
08 27.01
09 27.01
10 27.01
11 27.01
12 27.01
13 27.01
14 27.01
15 27.01
16 27.01
17 27.01
18 27.01
19 27.01
20 27.01
21 27.01
22 27.01
23 27.01
00 28.01
01 28.01
02 28.01
03 28.01
04 28.01
05 28.01
06 28.01
07 28.01
08 28.01
09 28.01
10 28.01
11 28.01
12 28.01
13 28.01
14 28.01
15 28.01
16 28.01
17 28.01
18 28.01
19 28.01
20 28.01
21 28.01
22 28.01
23 28.01
00 29.01
01 29.01
02 29.01
03 29.01
04 29.01
05 29.01
06 29.01
07 29.01
08 29.01
09 29.01
10 29.01
11 29.01
12 29.01
13 29.01
14 29.01
15 29.01
16 29.01
17 29.01
18 29.01
19 29.01
20 29.01
21 29.01
22 29.01
23 29.01
00 30.01
01 30.01
02 30.01
03 30.01
04 30.01
05 30.01
06 30.01
07 30.01
08 30.01
09 30.01
10 30.01
11 30.01
12 30.01
13 30.01
14 30.01
15 30.01
16 30.01
17 30.01
18 30.01
19 30.01
20 30.01
21 30.01
22 30.01
23 30.01
00 31.01
01 31.01
02 31.01
03 31.01
04 31.01
05 31.01
06 31.01
07 31.01
08 31.01
09 31.01
10 31.01
11 31.01
12 31.01
13 31.01
14 31.01
15 31.01
16 31.01
17 31.01
18 31.01
19 31.01
20 31.01
21 31.01
22 31.01
00 1.02
01 1.02
02 1.02
03 1.02
04 1.02
05 1.02
06 1.02
07 1.02
08 1.02
09 1.02
10 1.02
11 1.02
12 1.02
13 1.02
14 1.02
15 1.02
16 1.02
17 1.02
18 1.02
23 31.02
Ветер
(напр.,м/с)
Видим. Явления Облачность Т
(С)
Тd
(С)
f
(%)
Тe
(С)
Тes
(С)
Комфортность P
(гПа)
Po
(гПа)
Тmin
(С)
Tmax
(С)
R
(мм)
R24
(мм)
S
(см)
В 4 10 км 5/5 1350 м +17.0 +12.0 72 +17 +17 тепло 1018.0 1015.7
В 3 10 км ясно +17.0 +12.0 72 +17 +17 тепло 1017.0 1014.7
СВ 3 9000 м слаб. дождь 10/4 1350 м
[Sc Ac trans]
+16.4 +12.2 77 +16 +16 по сезону 1017.7 1017.1
нст 10-15 10 км слаб. дождь 5/5 1050 м
[Ns]
+16.0 +13.0 82 +14 +14 прохладно 1017.0 1014.7
ЮВ 3 н/о дождь 5/5 1350 м
[Ns]
+16.0 +14.0 88 +16 +16 по сезону 1018.0 1015.7
ЮВ 3 8000 м дождь {гроза} 10/4 1350 м
[Sc Ac trans]
+15.4 +13.4 88 +15 +15 тепло 1018.3 1017.7 8 23.2
В 5 10 км слаб. дождь 5/5 1350 м
[Ns]
+15.0 +14.0 94 +13 +13 по сезону 1018.0 1015.7
В 5 10 км слаб. дождь 5/5 1350 м
[Ns]
+15.0 +13.0 88 +14 +14 тепло 1018.0 1015.7
ЮВ 4 10 км в посл. час дождь 10/5 1350 м
[Sc Ac trans]
+15.6 +13.5 87 +15 +15 по сезону 1018.7 1018.1
В 6 10 км 5/5 1200 м +16.0 +13.0 82 +15 +15 по сезону 1019.0 1016.7
В 7 10 км 5/5 1350 м +17.0 +14.0 82 +16 +16 тепло 1020.0 1017.7
В 6-13 10 км слаб. дождь 10/5 1350 м
[Sc As op]
+17.1 +13.7 82 +16 +16 по сезону 1020.5 1019.8 +15.0 1
В 4 10 км 2/2 1350 м +17.0 +14.0 82 +17 +22 по сезону 1020.0 1017.7
В 5 10 км 2/2 1350 м +18.0 +14.0 77 +18 +22 по сезону 1019.0 1016.7
В 7 10 км {дождь} 9/3 750 м
[Sc Ac trans]
+19.2 +13.5 73 +20 +22 тепло 1017.7 1017.0
В 6 10 км 2/2 1350 м +20.0 +13.0 64 +22 +24 комфорт 1017.0 1014.8
В 8 10 км 2/2 1350 м +20.0 +14.0 68 +21 +22 комфорт 1015.0 1012.8
В 7-13 10 км {дождь} 10/3 1350 м
[Sc Ac trans]
+20.1 +13.2 64 +21 +22 комфорт 1015.8 1015.1 0.6
нст 8-13 н/о слаб. дождь 5/5 1050 м
[Ns]
+20.0 +14.0 68 +21 +21 комфорт 1015.0 1012.8
нст 8-13 н/о слаб. дождь 5/5 1050 м
[Ns]
+20.0 +13.0 64 +21 +21 комфорт 1016.0 1013.8
ЮВ 5-13 10 км в посл. час дождь 9/3 1350 м
[Sc As op]
+19.5 +11.4 56 +21 +21 комфорт 1016.8 1016.1
нст 8-13 10 км слаб. дождь 2/2 1050 м
[Ns]
+18.0 +14.0 77 +17 +17 по сезону 1017.0 1014.8
нст 8-13 10 км слаб. дождь 2/2 1050 м
[Ns]
+18.0 +14.0 77 +17 +17 по сезону 1018.0 1015.7
СВ 5-13 8000 м слаб. дождь 9/3 1050 м
[Sc Ac As]
+16.2 +14.7 94 +14 +14 прохладно 1018.5 1017.9 +20.3 1
нст 8-13 10 км 2/2 300 м +16.0 +15.0 94 +14 +14 по сезону 1018.0 1015.7
СВ 3 н/о дождь 2/2 1050 м
[Ns]
+16.0 +15.0 94 +15 +15 по сезону 1018.0 1015.7
СВ 6 10 км слаб. дождь 9/4 240 м
[Frnb Ac As]
+15.9 +14.8 94 +15 +15 по сезону 1017.2 1016.6
СВ 3 н/о дождь 2/2 240 м
[Ns]
+16.0 +15.0 94 +15 +15 по сезону 1017.0 1014.7
СВ 3 н/о дождь 5/5 240 м
[Ns]
+16.0 +15.0 94 +15 +15 по сезону 1017.0 1014.7
В 5 8000 м слаб. дождь 9/5 240 м
[Frnb Ac As]
+14.8 +14.0 95 +13 +13 по сезону 1016.7 1016.1 14 16.8
В 8 10 км слаб. дождь 5/5 240 м
[Ns]
+15.0 +14.0 94 +13 +13 тепло 1017.0 1014.7
В 8 10 км 5/5 360 м +15.0 +14.0 94 +13 +13 тепло 1017.0 1014.7
В 6 10 км в посл. час дождь 9/3 1200 м
[Sc Ac As]
+14.9 +13.3 90 +13 +13 по сезону 1017.5 1016.9
ЮВ 6 10 км 5/5 1350 м +16.0 +13.0 82 +15 +15 тепло 1018.0 1015.7
В 8 10 км 5/5 1350 м +16.0 +13.0 82 +14 +15 тепло 1018.0 1015.7
В 7 10 км {дождь} 10/5 1350 м
[Sc Ac trans]
+16.9 +12.3 72 +16 +17 по сезону 1019.2 1018.6 +14.7 1
В 8 10 км 5/5 1350 м +18.0 +13.0 73 +17 +18 тепло 1018.0 1015.7
В 6 10 км 5/5 1350 м +18.0 +14.0 77 +17 +20 тепло 1017.0 1014.8
В 5 10 км слаб. дождь 10/6 450 м
[St Ac trans]
+16.8 +14.5 88 +16 +19 по сезону 1016.5 1015.9
нст 10-15 10 км 5/5 450 м +19.0 +15.0 78 +19 +19 тепло 1015.0 1012.8
СВ 4 н/о слаб. дождь 5/5 450 м
[Ns]
+16.0 +15.0 94 +15 +18 по сезону 1015.0 1012.7
СВ 6 10 км {ливн. дождь, дождь} 10/6 900 м
[Cu med, cong Ac trans]
+17.1 +14.2 82 +16 +17 по сезону 1015.1 1014.5 18
С 4 10 км 5/5 900 м +16.0 +13.0 82 +15 +16 прохладно 1015.0 1012.7
нст 10-15 10 км слаб. дождь 8/8 300 м
[Ns]
+15.0 +13.0 88 +13 +13 прохладно 1016.0 1013.7
СВ 8-15 8000 м в посл. час ливневой дождь 10/8 900 м
[Cu med, cong Ac trans]
+14.4 +13.8 100 +11 +11 холодно 1017.2 1016.6
нст 10-15 н/о слаб. дождь 5/5 900 м
[Ns]
+15.0 +14.0 94 +12 +12 прохладно 1017.0 1014.7
нст 10-15 н/о слаб. дождь 5/5 900 м
[Ns]
+15.0 +13.0 88 +13 +13 по сезону 1017.0 1014.7
СВ 4-14 10 км в посл. час дождь {ливн. дождь} 9/4 1050 м
[Sc As op]
+15.3 +13.5 94 +13 +13 по сезону 1018.0 1017.3 +19.0 15
нст 9-14 10 км 2/2 900 м +16.0 +13.0 82 +14 +14 по сезону 1017.0 1014.7
нст 9-14 10 км 2/2 900 м +16.0 +13.0 82 +14 +14 по сезону 1017.0 1014.7
СВ 4-14 10 км 8/3 1050 м
[Sc Ac trans]
+15.5 +13.0 82 +14 +14 по сезону 1017.3 1016.6
нст 9-14 10 км 2/2 900 м +16.0 +13.0 82 +14 +14 тепло 1017.0 1014.7
нст 9-14 10 км 2/2 900 м +16.0 +13.0 82 +14 +14 тепло 1017.0 1014.7
нст 2-14 10 км 6/6 900 м
[Sc]
+16.4 +13.2 81 +17 +17 тепло 1017.2 1016.5 34.4
нст 9-14 10 км 8/8 900 м +17.0 +13.0 77 +16 +16 тепло 1017.0 1014.7
СВ 2 10 км 5/5 600 м +16.0 +14.0 88 +16 +16 тепло 1017.0 1014.7
В 4 8000 м {дождь} 3/3 1200 м
[Sc]
+16.4 +13.9 85 +16 +16 тепло 1017.7 1017.0
В 2 10 км ясно +16.0 +14.0 88 +16 +17 тепло 1018.0 1015.7
С 2 10 км 2/2 1200 м +17.0 +14.0 82 +17 +20 тепло 1019.0 1016.7
СВ 3 10 км {дождь} 1/1 1200 м
[Sc]
+19.3 +12.4 64 +21 +27 комфорт 1019.6 1019.0 +15.3 0.0
нст 8-13 10 км 5/5 900 м +20.0 +12.0 60 +21 +22 комфорт 1019.0 1016.8
нст 8-13 10 км 5/5 900 м +20.0 +12.0 60 +21 +22 комфорт 1018.0 1015.8
СЗ 5 10 км 5/5 900 м
[Sc]
+20.3 +12.4 60 +22 +25 комфорт 1017.4 1016.8
СЗ 5 10 км 2/2 1050 м +21.0 +11.0 53 +23 +28 комфорт 1017.0 1014.8
С 4 10 км 5/5 1200 м +21.0 +12.0 56 +23 +25 комфорт 1016.0 1013.8
СЗ 5 10 км 5/5 1200 м
[Sc]
+20.6 +11.6 56 +23 +24 комфорт 1015.8 1015.2
СЗ 5 10 км 5/5 1200 м +20.0 +12.0 60 +22 +22 комфорт 1016.0 1013.8
СЗ 5 10 км 2/2 1200 м +20.0 +12.0 60 +22 +22 комфорт 1016.0 1013.8
З 3 10 км 1/1 1350 м
[Sc]
+19.8 +11.4 56 +22 +22 комфорт 1017.1 1016.5
З 2 10 км 2/2 1350 м +20.0 +11.0 56 +22 +22 комфорт 1017.0 1014.8
В 3 10 км 8/8 1470 м +19.0 +12.0 64 +20 +20 тепло 1017.0 1014.8
В 3 10 км 9/9 1200 м
[Sc]
+18.3 +12.4 68 +18 +18 тепло 1017.9 1017.3 +21.8
ЮВ 2 10 км 8/8 1200 м +18.0 +12.0 68 +19 +19 тепло 1017.0 1014.8
Ю 3 10 км ясно +18.0 +13.0 73 +18 +18 тепло 1017.0 1014.8
Ю 3 10 км ясно +16.7 +12.3 72 +17 +17 тепло 1017.5 1016.9
Ю 2 10 км ясно +16.0 +12.0 77 +16 +16 тепло 1017.0 1014.7
ЮВ 2 10 км ясно +16.0 +12.0 77 +16 +16 тепло 1016.0 1013.7
Ю 2 10 км ясно +15.2 +11.8 82 +15 +15 тепло 1016.7 1016.1 0.0
ЮВ 2 н/о ясно +15.0 +12.0 82 +15 +15 тепло 1017.0 1014.7
ЮВ 2 н/о ясно +14.0 +11.0 82 +13 +13 тепло 1017.0 1014.7
нст 1 7000 м мгла ясно +14.0 +11.0 82 +14 +14 тепло 1017.4 1016.8
Ю 2 н/о ясно +14.0 +11.0 82 +13 +13 тепло 1017.0 1014.7
Ю 2 н/о ясно +16.0 +11.0 72 +16 +16 тепло 1018.0 1015.7
Ю 2 10 км ясно +18.2 +10.4 59 +19 +26 тепло 1019.1 1018.5 +13.7
Ю 2 10 км ясно +20.0 +10.0 53 +22 +32 комфорт 1018.0 1015.8
З 5 10 км ясно +21.0 +6.0 38 +22 +28 комфорт 1017.0 1014.8
Ю 3 10 км ясно +21.9 +5.5 35 +23 +32 комфорт 1016.4 1015.8
З 4 10 км ясно +22.0 +5.0 33 +22 +29 комфорт 1015.0 1012.8
З 5 10 км ясно +22.0 +5.0 33 +22 +26 комфорт 1015.0 1012.8
СЗ 4 10 км ясно +22.2 +4.9 33 +22 +24 комфорт 1015.0 1014.4
З 4 10 км ясно +22.0 +7.0 38 +23 +23 комфорт 1015.0 1012.8
З 3 10 км ясно +21.0 +7.0 40 +22 +22 комфорт 1015.0 1012.8
З 3 10 км ясно +20.6 +7.4 40 +22 +22 комфорт 1016.0 1015.4
З 3 10 км ясно +20.0 +9.0 49 +21 +21 комфорт 1016.0 1013.8
З 3 10 км ясно +20.0 +9.0 49 +21 +21 комфорт 1017.0 1014.8
ЮЗ 2 10 км ясно +19.2 +9.8 56 +20 +20 тепло 1017.3 1016.7 +22.7
Ю 2 10 км ясно +18.0 +10.0 59 +19 +19 тепло 1017.0 1014.7
Ю 2 10 км ясно +18.0 +10.0 59 +19 +19 тепло 1016.0 1013.8
Ю 2 10 км ясно +16.9 +10.4 63 +17 +17 тепло 1016.2 1015.6
Ю 1 10 км 2/2 900 м +16.0 +10.0 68 +17 +17 тепло 1016.0 1013.7
Ю 2 10 км 2/2 900 м +16.0 +11.0 72 +16 +16 тепло 1016.0 1013.7
ЮВ 2 10 км 1/1 900 м
[Sc]
+15.1 +10.5 74 +15 +15 по сезону 1016.2 1015.6
ЮВ 2 н/о 2/2 900 м +15.0 +11.0 77 +15 +15 по сезону 1016.0 1013.7
ЮВ 2 н/о 8/8 900 м +15.0 +11.0 77 +15 +15 по сезону 1017.0 1014.7
Ю 2 6000 м мгла 3/1 900 м
[Sc Ci fib]
+14.7 +11.1 77 +15 +15 по сезону 1018.2 1017.6
Ю 3 н/о мгла ясно +15.0 +11.0 77 +14 +14 прохладно 1019.0 1016.7
Ю 3 н/о ясно +16.0 +12.0 77 +16 +16 по сезону 1020.0 1017.7
Ю 3 8000 м мгла 3/0
[Ci fib]
+18.5 +12.6 68 +19 +26 по сезону 1020.5 1019.9 +14.6
З 5 10 км ясно +21.0 +13.0 60 +24 +29 комфорт 1020.0 1017.8
З 5 10 км 5/5 1050 м +22.0 +13.0 57 +25 +28 комфорт 1019.0 1016.8
СЗ 3 10 км 5/5 1050 м
[Sc]
+22.4 +12.8 57 +25 +30 комфорт 1018.4 1017.8
З 4 10 км 2/2 1050 м +23.0 +13.0 53 +26 +31 жарко 1017.0 1014.8
З 4 10 км ясно +23.0 +13.0 53 +26 +30 жарко 1017.0 1014.8
З 3 10 км ясно +22.9 +13.2 53 +26 +28 жарко 1016.9 1016.3
СЗ 5 10 км ясно +22.0 +13.0 57 +25 +25 комфорт 1017.0 1014.8
СЗ 4 10 км ясно +21.0 +13.0 60 +24 +24 комфорт 1017.0 1014.8
С 3 10 км ясно +21.0 +13.5 64 +24 +24 комфорт 1018.0 1017.4
СЗ 3 10 км ясно +21.0 +14.0 64 +24 +24 комфорт 1018.0 1015.8
С 2 10 км ясно +20.0 +14.0 68 +23 +23 комфорт 1018.0 1015.8
СВ 2 8000 м мгла ясно +20.1 +14.1 68 +23 +23 комфорт 1018.5 1017.9 +24.0
В 2 н/о ясно +19.0 +14.0 73 +21 +21 комфорт 1018.0 1015.8
В 3 н/о ясно +19.0 +14.0 73 +20 +20 тепло 1018.0 1015.8
В 2 7000 м мгла ясно +18.1 +14.1 77 +19 +19 тепло 1018.0 1017.4
В 2 н/о ясно +18.0 +14.0 77 +19 +19 тепло 1018.0 1015.7
В 2 н/о ясно +17.0 +14.0 82 +17 +17 по сезону 1018.0 1015.7
СВ 3 5000 м мгла ясно +18.0 +14.2 77 +18 +18 тепло 1017.8 1017.2
В 2 н/о мгла ясно +16.0 +14.0 88 +16 +16 тепло 1018.0 1015.7
В 2 н/о мгла ясно +16.0 +13.0 82 +16 +16 тепло 1018.0 1015.7
В 2 4000 м мгла ясно +15.4 +12.6 83 +15 +15 по сезону 1018.4 1017.8
В 3 н/о мгла ясно +17.0 +13.0 77 +17 +17 по сезону 1019.0 1016.7
В 3 н/о мгла ясно +19.0 +13.0 68 +20 +20 тепло 1019.0 1016.8
В 4 7000 м пыль ясно +20.7 +13.5 64 +24 +24 комфорт 1020.0 1019.3 +15.1
ЮВ 4 10 км ясно +23.0 +12.0 50 +26 +33 жарко 1019.0 1016.8
Ю 3 10 км ясно +24.0 +11.0 44 +25 +35 комфорт 1018.0 1015.8
ЮЗ 4 10 км ясно +25.7 +9.7 37 +27 +35 жарко 1017.3 1016.6
С 5 10 км ясно +27.0 +8.0 30 +27 +32 жарко 1016.0 1013.8
С 5 10 км ясно +27.0 +8.0 30 +27 +30 жарко 1015.0 1012.8
Ю 6 10 км ясно +27.7 +6.7 26 +27 +29 жарко 1015.1 1014.4
С 5 10 км ясно +28.0 +8.0 28 +28 +28 жарко 1015.0 1012.8
СЗ 3 10 км ясно +25.0 +14.0 50 +27 +27 жарко 1015.0 1012.8
С 4 10 км ясно +22.8 +16.0 65 +27 +27 душно 1016.0 1015.3
СВ 4 10 км ясно +22.0 +16.0 69 +26 +26 душно 1016.0 1013.8
В 2 10 км ясно +21.0 +16.0 73 +25 +25 комфорт 1017.0 1014.8
В 5 10 км ясно +21.5 +15.7 69 +26 +26 душно 1016.9 1016.3 +28.7
В 5 10 км ясно +21.0 +15.0 69 +24 +24 комфорт 1016.0 1013.8
В 5 10 км ясно +20.0 +15.0 73 +22 +22 комфорт 1016.0 1013.8
В 3 8000 м мгла ясно +19.9 +15.4 73 +23 +23 комфорт 1016.7 1016.1
В 4 н/о ясно +19.0 +15.0 78 +20 +20 тепло 1016.0 1013.8
В 6 10 км ясно +19.7 +15.2 73 +22 +22 комфорт 1015.3 1014.7
ЮВ 3 10 км ясно +20.0 +15.0 73 +23 +23 комфорт 1016.0 1013.8
ЮВ 5 10 км ясно +19.0 +15.0 78 +20 +20 тепло 1016.0 1013.8
ЮВ 4 10 км ясно +19.5 +15.2 76 +21 +21 комфорт 1017.3 1016.7
ЮВ 3 10 км ясно +20.0 +15.0 73 +23 +24 комфорт 1018.0 1015.8
ЮВ 5 10 км ясно +21.0 +16.0 73 +24 +27 комфорт 1018.0 1015.8
ЮВ 6 10 км ясно +22.9 +14.6 61 +27 +30 душно 1018.8 1018.1 +18.9
ЮВ 6 10 км ясно +25.0 +13.0 47 +27 +31 жарко 1018.0 1015.8
Ю 5 10 км ясно +25.0 +12.0 44 +27 +33 жарко 1017.0 1014.8
Ю 4 10 км ясно +26.5 +10.9 37 +28 +36 жарко 1016.5 1015.8
ЮВ 5 10 км ясно +27.0 +10.0 34 +27 +32 жарко 1015.0 1012.8
ЮВ 4 10 км ясно +28.0 +10.0 32 +28 +33 жарко 1014.0 1011.8
Ю 5 10 км ясно +28.6 +6.4 23 +28 +29 жарко 1014.7 1014.0
С 5 10 км ясно +26.0 +14.0 48 +28 +29 жарко 1014.0 1011.8
С 3 10 км ясно +25.0 +13.0 47 +27 +27 жарко 1015.0 1012.8
С 4 10 км ясно +24.0 +16.6 65 +28 +28 душно 1015.9 1015.2
С 4 10 км ясно +23.0 +17.0 69 +28 +28 душно 1016.0 1013.8
СВ 3 10 км ясно +23.0 +17.0 69 +28 +28 душно 1016.0 1013.8
В 3 10 км ясно +22.6 +16.5 69 +28 +28 душно 1016.8 1016.2 +28.7
В 4 н/о ясно +20.0 +15.0 73 +22 +22 комфорт 1016.0 1013.8
Местоположение метеостанции Дубай (ОАЭ): широта 25.25 долгота 55.33 высота над уровнем моря 5 м.
В архиве по умолчанию представлена погода в Дубае за последнюю неделю. Архивные данные за месяц целиком и за предыдущие месяцы, начиная с января 2011 года, Вы можете получить, выбрав интересующий диапазон дат из раскрывающегося списка и нажав кнопку "Найти!".
*Определитесь, кто Вы:
Внимание! Время в таблицах - всемирное. Для получения местного времени необходимо прибавить поправку, которая равна 4 ч.
Смотрите также архив погоды в соседних городах и на ближайших метеорологических станциях:
Партнеры нашего сайта:      
Пояснения к столбцам:
  • Ветер - указаны скорость ветра в м/с - средняя за 10 мин, порывы в срок и между сроками (в фигурных скобках) и направление, откуда дует ветер: С - северный,
  • СВ - северо-восточный, В - восточный, ЮВ - юго-восточный, Ю - южный, ЮЗ - юго-западный, З - западный, СЗ - северо-западный.
  • Видимость - горизонтальная дальность видимости в метрах или километрах. При видимости от 1 до 10 км при отсутствии осадков обычно наблюдается дымка, при ухудшении видимости до 1 км и менее - туман. В сухую погоду видимость может ухудшаться дымом, пылью или мглою.
  • Явления - указаны атмосферные явления, наблюдавшиеся в срок или в последний час перед сроком; фигурными скобками обозначены явления, наблюдавшиеся между сроками (за 1-3 часа до срока); квадратными скобками обозначены град или гололедные отложения с указанием их диаметра в мм.
  • Облачность - указаны через наклонную черту общая и нижняя облачность в баллах и высота нижней границы облаков в метрах; квадратными скобками обозначены формы облаков: Ci - перистые, Cs - перисто-слоистые, Cc - перисто-кучевые, Ac - высококучевые, As - высокослоистые, Sc - слоисто-кучевые, Ns - слоисто-дождевые, Cu - кучевые, Cb - кучево-дождевые. Подробнее классификацию облаков см. в Атласе облаков (PDF).
  • T - Температура воздуха - температура, измеренная на высоте 2 м над землей.
  • Td - Температура точки росы - температура, при понижении до которой содержащийся в воздухе водяной пар достигнет насыщения.
  • f - Относительная влажность воздуха - влажноcть воздуха, измеренная на высоте 2 м над землей.
  • Te - Эффективная температура - температура, которую ощущает одетый по сезону человек в тени. Характеристика душности погоды. При расчете учитывается влияние влажности воздуха и скорости ветра на теплоощущения человека.
  • Tes - Эффективная температура на солнце - температура, которую ощущает человек, с поправкой на солнечный нагрев. Характеристика знойности погоды. Зависит от высоты солнца над горизонтом, облачности и скорости ветра. Ночью, в пасмурную погоду, а также при ветре 12 м/с и более поправка равна нулю.
  • P - Атмосферное давление - приведенное к уровню моря атмосферное давление.
  • Po - Атмосферное давление - измеренное на уровне метеостанции атмосферное давление.
  • Tmin - Минимальная температура - минимум температуры воздуха на высоте 2 м над землей.
  • Tmax - Максимальная температура - максимум температуры воздуха на высоте 2 м над землей.
  • R - Количество осадков - Количество выпавших осадков за период времени, мм. При наведении курсора мыши на число - период времени, за который выпало указанное количество осадков.
  • R24 - Количество осадков - Количество выпавших осадков за 24 часа, мм.
  • S - Снежный покров - Высота снежного покрова, см. При наведении курсора мыши на число - состояние снежного покрова и степень покрытия местности в баллах.